QPF
0.00 0.00 0.00 0.00 0.09 0.23 0.27 0.22 0.26 0.24 0.24 0.21 0.17 0.24 0.31 0.55 0.80 0.93 0.51 0.28 0.17 0.08 0.04 0.05 0.05 0.06 0.07
0.00 0.00 0.00 0.00 0.03 0.15 0.24 0.23 0.21 0.21 0.31 0.29 0.31 0.17 0.18 0.19 0.53 0.66 0.64 0.39 0.22 0.16 0.09 0.06 0.05 0.06 0.11
0.00 0.00 0.00 0.00 0.01 0.05 0.15 0.22 0.19 0.18 0.21 0.22 0.35 0.16 0.13 0.24 0.40 0.58 0.54 0.52 0.30 0.22 0.13 0.10 0.07 0.06 0.11
0.00 0.00 0.00 0.00 0.01 0.11 0.07 0.21 0.23 0.15 0.25 0.13 0.16 0.19 0.09 0.09 0.13 0.41 0.45 0.42 0.43 0.26 0.17 0.16 0.11 0.06 0.11
0.00 0.00 0.00 0.00 0.02 0.20 0.10 0.27 0.33 0.19 0.17 0.06 0.06 0.11 0.11 0.05 0.05 0.28 0.25 0.30 0.48 0.35 0.16 0.20 0.13 0.09 0.13
0.00 0.00 0.00 0.00 0.02 0.13 0.12 0.13 0.20 0.14 0.05 0.08 0.05 0.05 0.05 0.04 0.01 0.04 0.12 0.22 0.38 0.36 0.21 0.20 0.19 0.15 0.19
0.02 0.00 0.00 0.00 0.01 0.07 0.11 0.15 0.09 0.07 0.03 0.04 0.04 0.01 0.01 0.00 0.00 0.00 0.02 0.08 0.16 0.19 0.21 0.28 0.21 0.26 0.21
0.01 0.01 0.00 0.00 0.00 0.02 0.04 0.08 0.08 0.05 0.03 0.01 0.00 0.00 0.00 0.00 0.01 0.00 0.00 0.03 0.08 0.12 0.20 0.38 0.37 0.36 0.16
0.00 0.00 0.00 0.00 0.00 0.01 0.04 0.06 0.06 0.03 0.05 0.05 0.01 0.00 0.00 0.00 0.02 0.05 0.04 0.02 0.04 0.12 0.21 0.33 0.34 0.33 0.28
0.00 0.00 0.00 0.00 0.00 0.01 0.04 0.08 0.08 0.06 0.06 0.04 0.01 0.00 0.00 0.01 0.00 0.02 0.05 0.09 0.07 0.09 0.15 0.26 0.42 0.30 0.22
0.00 0.00 0.00 0.00 0.00 0.00 0.04 0.07 0.12 0.10 0.10 0.07 0.00 0.00 0.00 0.03 0.02 0.02 0.03 0.07 0.08 0.14 0.20 0.29 0.34 0.32 0.19
0.01 0.00 0.00 0.00 0.00 0.00 0.00 0.04 0.10 0.11 0.17 0.17 0.04 0.00 0.00 0.01 0.05 0.06 0.05 0.05 0.04 0.05 0.09 0.18 0.24 0.28 0.24
0.01 0.00 0.00 0.00 0.00 0.00 0.00 0.01 0.06 0.06 0.10 0.29 0.16 0.02 0.00 0.00 0.02 0.04 0.06 0.09 0.08 0.07 0.06 0.05 0.09 0.10 0.08
0.02 0.00 0.00 0.00 0.00 0.00 0.00 0.00 0.05 0.09 0.06 0.16 0.18 0.05 0.00 0.01 0.01 0.01 0.02 0.05 0.07 0.08 0.07 0.04 0.02 0.01 0.01
0.00 0.00 0.00 0.00 0.00 0.00 0.00 0.00 0.03 0.07 0.08 0.08 0.09 0.05 0.04 0.05 0.07 0.04 0.03 0.03 0.02 0.02 0.01 0.00 0.00 0.00 0.00
0.01 0.00 0.00 0.00 0.00 0.00 0.00 0.00 0.01 0.06 0.08 0.05 0.06 0.06 0.11 0.12 0.12 0.05 0.07 0.05 0.03 0.01 0.00 0.00 0.00 0.00 0.00
0.01 0.01 0.00 0.00 0.00 0.01 0.00 0.00 0.01 0.07 0.09 0.07 0.05 0.02 0.04 0.04 0.12 0.12 0.04 0.04 0.02 0.01 0.00 0.00 0.00 0.00 0.00
MSLP
1005.47 1004.63 1003.76 1002.92 1002.01 1001.43 1000.34 999.22 998.79 997.20 996.76 996.26 995.38 995.87 995.86 995.43 997.31 998.25 999.97 1001.71 1003.35 1004.90 1006.08 1007.63 1009.02 1010.19 1011.15
1005.72 1004.77 1003.65 1002.93 1002.50 1002.05 1000.96 1000.22 999.48 998.57 997.52 996.98 996.60 996.31 996.47 996.91 996.97 997.68 999.25 1001.05 1002.90 1004.48 1005.94 1007.10 1008.43 1009.62 1010.83
1005.64 1004.72 1003.91 1003.19 1002.65 1002.27 1001.30 1000.43 999.99 999.40 998.56 997.61 997.43 997.38 997.65 997.45 996.86 997.13 998.07 1000.44 1002.46 1004.17 1005.71 1006.65 1008.12 1009.54 1010.71
1005.87 1004.88 1004.08 1003.24 1002.91 1002.19 1001.31 1001.17 1000.50 1000.25 999.62 998.79 998.80 998.07 998.19 997.93 997.81 997.78 998.50 1000.52 1002.40 1003.83 1005.24 1006.53 1007.89 1009.28 1010.58
1005.25 1004.55 1004.00 1003.41 1002.74 1002.44 1001.86 1001.64 1001.43 1001.61 1000.41 999.99 999.55 998.87 998.98 998.83 998.90 999.22 999.39 1000.48 1001.96 1003.44 1005.02 1006.37 1007.51 1009.05 1010.34
1005.25 1004.72 1004.11 1003.62 1003.46 1003.26 1002.95 1002.54 1002.33 1001.84 1001.65 1000.95 1000.42 1000.02 1000.06 1000.09 999.58 1000.08 999.77 1000.77 1001.73 1003.13 1004.83 1006.07 1007.25 1008.63 1010.10
1005.35 1004.82 1004.40 1004.28 1004.17 1004.08 1003.68 1003.26 1002.82 1002.67 1002.29 1002.05 1001.57 1001.43 1001.43 1001.07 1000.36 1000.57 1000.94 1001.11 1001.79 1002.86 1004.54 1005.86 1007.16 1008.59 1010.12
1005.23 1005.05 1004.68 1004.55 1004.60 1004.62 1004.51 1004.22 1003.94 1003.55 1002.97 1003.55 1003.55 1003.09 1002.63 1002.21 1001.52 1000.77 1001.40 1001.66 1002.78 1003.45 1004.73 1005.96 1007.19 1008.48 1010.41
1005.29 1005.19 1005.11 1004.93 1004.81 1004.58 1004.74 1004.71 1004.50 1004.09 1003.80 1004.19 1004.56 1004.27 1004.13 1004.18 1003.35 1001.96 1001.97 1002.77 1003.20 1003.71 1005.11 1006.25 1007.70 1009.50 1011.40
1004.78 1004.71 1004.87 1004.88 1004.93 1004.86 1004.88 1005.00 1004.91 1004.72 1004.70 1004.62 1004.76 1004.71 1005.92 1006.35 1005.87 1005.07 1004.18 1004.31 1004.64 1005.52 1006.72 1007.77 1008.36 1010.21 1012.12
1004.89 1004.65 1004.59 1004.74 1004.91 1004.90 1005.08 1004.96 1005.05 1005.02 1004.82 1005.06 1005.50 1005.43 1006.31 1007.67 1008.09 1007.53 1007.17 1007.45 1007.57 1008.33 1009.18 1009.67 1010.18 1010.79 1012.15
1004.60 1004.51 1004.44 1004.53 1004.64 1004.86 1004.92 1005.22 1005.29 1005.15 1005.02 1005.42 1006.00 1005.99 1006.18 1007.77 1008.75 1009.24 1009.37 1009.49 1009.43 1009.76 1010.43 1011.51 1012.64 1013.49 1013.72
1004.20 1004.17 1004.10 1004.22 1004.49 1004.88 1005.15 1005.41 1005.58 1005.47 1005.54 1005.83 1006.03 1006.29 1006.81 1007.33 1009.05 1010.50 1010.39 1011.30 1011.47 1011.71 1012.79 1013.77 1014.64 1015.31 1015.98
1004.24 1004.16 1003.96 1004.22 1004.38 1004.85 1005.27 1005.49 1005.82 1006.29 1006.27 1006.16 1006.53 1007.15 1007.91 1008.45 1009.39 1010.74 1011.15 1012.09 1012.98 1013.45 1013.99 1015.09 1016.00 1016.58 1016.79
1003.96 1004.22 1004.27 1004.29 1004.39 1004.80 1005.40 1005.77 1006.00 1006.69 1007.27 1007.41 1007.71 1008.03 1008.90 1009.27 1010.22 1011.42 1011.89 1012.99 1014.19 1014.43 1014.99 1016.05 1017.22 1017.66 1018.32
1003.45 1003.67 1004.10 1004.45 1004.64 1004.99 1005.30 1005.51 1006.19 1007.05 1007.48 1007.83 1008.21 1008.92 1009.91 1010.98 1011.31 1011.92 1012.84 1013.71 1014.85 1015.20 1015.99 1016.66 1017.90 1018.52 1018.80
1002.97 1003.23 1003.67 1004.09 1004.39 1004.83 1005.13 1005.51 1006.20 1006.93 1007.44 1007.89 1008.09 1008.39 1009.91 1011.57 1012.92 1013.04 1013.21 1014.57 1015.22 1016.26 1016.98 1017.31 1018.15 1018.96 1019.34
Thickness
5356 5374 5391 5409 5427 5442 5463 5480 5493 5515 5527 5546 5567 5572 5572 5588 5585 5589 5585 5581 5577 5573 5572 5567 5562 5560 5558
5348 5368 5388 5405 5417 5432 5454 5466 5483 5501 5518 5532 5545 5557 5566 5572 5582 5585 5584 5578 5572 5567 5565 5563 5559 5555 5551
5344 5363 5381 5398 5411 5428 5443 5460 5476 5492 5504 5521 5533 5544 5548 5562 5576 5584 5586 5575 5567 5562 5558 5558 5553 5546 5543
5337 5357 5375 5392 5404 5420 5440 5449 5465 5477 5492 5513 5518 5534 5538 5552 5562 5572 5574 5566 5562 5559 5554 5551 5546 5540 5537
5340 5356 5372 5386 5401 5413 5430 5442 5451 5458 5476 5492 5505 5520 5528 5539 5550 5556 5561 5561 5559 5555 5549 5545 5542 5535 5532
5338 5351 5366 5380 5391 5400 5417 5430 5441 5449 5462 5477 5492 5505 5512 5524 5538 5543 5553 5552 5553 5551 5545 5541 5538 5535 5529
5331 5347 5359 5369 5380 5389 5405 5419 5429 5438 5450 5461 5475 5489 5495 5508 5523 5531 5537 5546 5546 5548 5540 5539 5536 5530 5523
5328 5339 5352 5363 5372 5381 5391 5403 5416 5427 5440 5446 5455 5469 5481 5494 5509 5523 5527 5535 5534 5538 5536 5534 5531 5525 5513
5324 5333 5344 5356 5366 5377 5384 5394 5406 5417 5429 5436 5443 5456 5465 5473 5488 5507 5517 5520 5526 5530 5526 5525 5518 5511 5501
5326 5334 5342 5352 5362 5371 5379 5387 5397 5410 5416 5430 5437 5448 5450 5450 5460 5477 5491 5500 5509 5508 5506 5503 5506 5498 5491
5321 5330 5340 5349 5357 5367 5375 5384 5393 5402 5411 5419 5426 5437 5438 5435 5439 5450 5462 5470 5478 5480 5480 5486 5489 5491 5483
5320 5326 5335 5345 5355 5363 5373 5379 5388 5398 5406 5412 5418 5430 5433 5431 5431 5435 5442 5450 5459 5464 5467 5466 5464 5463 5466
5318 5324 5332 5341 5349 5358 5366 5374 5382 5391 5398 5405 5410 5416 5426 5430 5426 5423 5432 5432 5440 5446 5445 5445 5444 5444 5443
5311 5319 5330 5337 5347 5354 5361 5369 5376 5381 5389 5397 5402 5406 5410 5416 5419 5416 5420 5423 5423 5426 5429 5428 5426 5426 5431
5309 5314 5322 5332 5342 5348 5353 5362 5372 5376 5379 5385 5391 5397 5399 5405 5405 5403 5409 5408 5406 5412 5415 5414 5411 5412 5412
5308 5316 5320 5325 5333 5341 5349 5360 5366 5369 5374 5378 5384 5389 5389 5387 5391 5395 5394 5396 5395 5399 5401 5401 5397 5397 5400
5309 5315 5319 5324 5331 5336 5345 5354 5360 5364 5369 5375 5384 5393 5388 5380 5377 5382 5389 5385 5387 5386 5387 5390 5388 5387 5387